Notices

What's New in latest Release from April 7th, 2021:

- Updated Glossary, including Speed of Maximum Gust, and Total Hourly Precipitation

- Updated national and regional climate services offices contacts and prices information

- Addition of station inventory lists for 1981-2010, 1971-2000, and 1961-1990 Normals.

If you haven't already, please take our survey and provide feedback about our website: https://eccc.sondage-survey.ca/f/LanguageSelection.aspx?s=442ca660-fcf1-47c0-95a9-59707d6fd709

Hourly Data Report for July 13, 2018

OTTAWA INTL A
ONTARIO
Current Station Operator: NAVCAN

45°19'00.000" N
75°40'00.000" W
114.90 m
6106001
71628
YOW

Download Data

Hourly Data (July 2018)
Hourly Data Report for July 13, 2018
TIME
LST
Temp Definition
°C
Dew Point Definition
°C
Rel Hum Definition
%
Precip. Amount Definition
mm

Wind Dir Definition
10's deg

Wind Spd Definition
km/h
Visibility Definition
km
Stn Press Definition
kPa
Hmdx Definition


Wind Chill Definition


Weather Definition


00:00 18.6 11.0 61   17 10 24.1 100.87     LegendNANA
01:00 16.5 11.4 72   10 4 24.1 100.90     Mainly Clear
02:00 14.8 10.7 77   36 2 24.1 100.90     LegendNANA
03:00 14.3 10.2 77   9 3 24.1 100.93     LegendNANA
04:00 12.5 10.0 85   5 3 24.1 100.91     Mainly Clear
05:00 12.2 10.1 87   9 7 24.1 100.92     LegendNANA
06:00 16.1 12.2 78   9 4 24.1 100.99     LegendNANA
07:00 18.9 13.1 69   16 7 24.1 100.99     Mostly Cloudy
08:00 21.7 13.9 61   14 5 24.1 100.98 25   LegendNANA
09:00 25.3 13.4 47   16 14 24.1 100.92 28   LegendNANA
10:00 27.2 13.6 43   16 8 24.1 100.91 30   Mostly Cloudy
11:00 28.2 13.8 41   15 17 24.1 100.84 31   LegendNANA
12:00 28.6 13.7 40   11 7 24.1 100.78 32   LegendNANA
13:00 28.8 13.9 39   17 14 24.1 100.71 32   Mostly Cloudy
14:00 29.3 13.9 38   15 21 24.1 100.68 33   LegendNANA
15:00 28.6 14.5 42   17 17 24.1 100.66 32   LegendNANA
16:00 28.1 14.7 43   17 10 24.1 100.63 32   Mostly Cloudy
17:00 27.7 15.2 46   17 10 24.1 100.57 32   LegendNANA
18:00 26.6 14.1 46   17 10 24.1 100.55 30   LegendNANA
19:00 25.5 14.0 48   17 8 24.1 100.52 29   Cloudy
20:00 24.6 12.7 47   16 9 24.1 100.49 27   LegendNANA
21:00 24.1 12.2 47   17 9 24.1 100.49 26   LegendNANA
22:00 23.7 12.6 49   16 10 24.1 100.45 26   Cloudy
23:00 23.4 13.1 52   14 4 24.1 100.41 26   LegendNANA

Notes on Data Quality.

Legend

  • E = Estimated
  • M = Missing
  • NA = Not Available*
  • [empty] = Indicates an unobserved value
Date modified: